Tracking 34747 objects as of 16-Jul-2026
HD Live streaming from Space Station
objects crossing your sky now

ARIANE 44L DEB

Track ARIANE 44L DEB now!


NORAD ID: 28575
Int'l Code: 1991-075M
Perigee: 819.4 km
Apogee: 28,677.4 km
Inclination: 6.3 °
Period: 509.1 minutes
Semi major axis: 21119 km
RCS: 1.3642 m2 (large)
Launch date: October 29, 1991
Source: France (FR)
Launch site: FRENCH GUIANA (FRGUI)

Note: This is SATELLITE DEBRIS
Your satellite tracking list
Your tracking list is empty




NASA's NSSDC Master Catalog

Two Line Element Set (TLE):
1 28575U 91075M   26196.77162284 -.00000131  00000-0 -25260-2 0  9994
2 28575   6.3318 357.9365 6595352  60.4751  91.2765  2.82865656251293
Source of the keplerian elements: AFSPC